Location: *
(40.7765°S, 106.5327°E)
Time: 12:37:43
(UTC+00:00)

Cosmos 2016 Rocket - Visible Passes

Search period start: 26 September 2022 00:00
Search period end: 06 October 2022 00:00
Orbit: 947 x 999 km, 83.0° (Epoch: 25 September)

Date Brightness Start Highest point End Pass type
(mag) Time Alt. Az. Time Alt. Az. Time Alt. Az.
26 Sep 7.3 11:57:59 10° W 11:59:43 11° WSW 12:01:27 10° SW visible
26 Sep 6.9 19:20:36 10° SE 19:23:01 12° ESE 19:25:27 10° E visible
26 Sep 4.0 21:03:03 10° S 21:09:20 84° E 21:15:36 10° N visible
27 Sep 6.2 19:43:35 10° SSE 19:48:21 22° ESE 19:53:08 10° ENE visible
27 Sep 4.1 21:27:59 10° SSW 21:34:03 55° W 21:40:08 10° NNW visible
28 Sep 5.3 20:07:40 10° S 20:13:29 39° ESE 20:19:18 10° NE visible
28 Sep 4.7 21:53:17 10° SSW 21:58:38 31° W 22:03:59 10° NW visible
29 Sep 7.0 11:25:37 10° W 11:28:38 14° WSW 11:31:40 10° SW visible
29 Sep 4.3 20:32:11 10° S 20:38:26 70° E 20:44:41 10° NNE visible
30 Sep 6.4 19:13:04 10° SSE 19:17:20 19° ESE 19:21:36 10° ENE visible
30 Sep 3.9 20:57:01 10° SSW 21:03:13 67° W 21:09:26 10° N visible
01 Oct 5.6 19:36:57 10° S 19:42:32 33° ESE 19:48:06 10° NE visible
01 Oct 4.5 21:22:11 10° SSW 21:27:50 37° W 21:33:32 10° NNW visible
02 Oct 4.5 20:01:21 10° S 20:07:31 58° E 20:13:43 10° NNE visible
02 Oct 5.2 21:47:51 10° SW 21:52:19 21° W 21:56:47 10° NW visible
03 Oct 6.5 18:42:41 10° SSE 18:46:17 16° ESE 18:49:53 10° ENE visible
03 Oct 3.9 20:26:05 10° S 20:32:22 80° W 20:38:40 10° N visible
04 Oct 5.8 19:06:16 10° SSE 19:11:32 28° ESE 19:16:49 10° NE visible
04 Oct 4.3 20:51:08 10° SSW 20:57:03 45° W 21:02:59 10° NNW visible
05 Oct 4.8 19:30:32 10° S 19:36:36 48° ESE 19:42:41 10° NNE visible
05 Oct 5.0 21:16:35 10° SSW 21:21:33 25° W 21:26:33 10° NW visible
